Regional Weather Roundup
Issued by NWS

Home | Current Version | Previous Version | Graphics & Text | Print | Product List | Glossary On
Versions: 1 2 3 4 5 6 7 8 9 10 11 12 13 14 15 16 17 18 19 20 21 22 23 24 25 26 27 28 29 30 31 32 33 34 35 36 37 38 39 40 41 42 43 44 45 46 47 48 49 50
000
ASUS45 KTFX 220419
RWRMT
MONTANA HOURLY WEATHER ROUNDUP
NATIONAL WEATHER SERVICE GREAT FALLS MT
1019 PM MDT THU AUG 21 2014

NOTE: "FAIR" INDICATES FEW OR NO CLOUDS BELOW 12000 FEET WITH NO
SIGNIFICANT WEATHER AND/OR OBSTRUCTIONS TO VISIBILITY.

* THESE STATIONS ARE NOT UNDER NWS QUALITY CONTROL. THEY DO NOT
   REPORT WEATHER SUCH AS PRECIPITATION OR FOG.

MTZ001>007-043-220500-
WEST OF THE DIVIDE
CITY           SKY/WX    TMP DP  RH WIND       PRES   REMARKS
KALISPELL      PTCLDY    57  46  67 NE15      30.06R
MISSOULA       CLOUDY    61  52  72 E8        30.05R
BUTTE          LGT RAIN  52  46  80 SE13      30.15R
MULLAN PASS    CLOUDY    50  45  83 SE9       30.09S
* ESSEX        N/A       56  44  64 W3G12      N/A
* LINCOLN      N/A       52  49  90 NE4G18     N/A
* LOOKOUT PASS N/A       54  49  83 N/A        N/A
* POLSON       N/A       54  50  86 N3         N/A
* RONAN APT    MOCLDY    59  52  78 N/A        N/A
* SEELEY LAKE  N/A       56  49  77 SW5G11     N/A
* THOMP F APT  CLOUDY    49  44  83 NE1G7      N/A
* YAAK HILL    N/A       59  50  72 VRB3       N/A
$$

MTZ008-052>055-220500-
SOUTHWEST MONTANA
CITY           SKY/WX    TMP DP  RH WIND       PRES   REMARKS
BOZEMAN        LGT RAIN  55  52  90 SW8       30.14R
DILLON         CLOUDY    52  48  86 N5        30.10R
W YELLOWSTONE  MOCLDY    46  46 100 SW3       30.21R
* THREE FORKS  CLOUDY    57  37  47 N/A        N/A
* BOULDER HILL N/A       50  46  86 N13G19     N/A
* MONIDA PASS  N/A       49  45  86 SE5        N/A
* RAYNOLDS PAS N/A       45  30  56 S6         N/A
* WHITEHALL    N/A       60  51  72 E4G10      N/A
* WISE RIVER   N/A       52  48  86 SE8G17     N/A
$$

MTZ009>010-012-014-046-048-049-054-220500-
EAST SLOPES AND CENTRAL MONTANA
CITY           SKY/WX    TMP DP  RH WIND       PRES   REMARKS
CUT BANK       CLOUDY    52  48  86 NE8       30.19R
GREAT FALLS    CLOUDY    54  48  80 NE15      30.14S
HELENA         FOG       55  54  96 CALM      30.11F
MALMSTROM AFB  CLOUDY    54  50  86 NE14      30.16S
* CONRAD       CLOUDY    54  54 100 NW8        N/A
* DEARBORN     N/A       56  52  87 NE12G19    N/A
* EAST GLACIER N/A       46  46 100 E9         N/A
* MONARCH      N/A       50  47  89 N6         N/A
* PENDROY      N/A       50  49  96 NE8        N/A
* ROGERS PASS  N/A       49  47  93 S3G8       N/A
* SAINT MARY   N/A       48  47  96 N3         N/A
* SWEET GRASS  N/A       51  51 100 N8         N/A
* WHITE SULPH  N/A       54  51  90 N4G14      N/A
$$

MTZ011-013-016-021-035-040-045-047-050-051-220500-
NORTH CENTRAL MONTANA
CITY           SKY/WX    TMP DP  RH WIND       PRES   REMARKS
HAVRE          CLOUDY    57  50  78 NE9       30.13S
LEWISTOWN      MOCLDY    54  50  86 SE5       30.13S
* FORT BENTON  CLOUDY    55  50  83 N9        30.14F
* CHESTER      N/A       53  49  86 E5G10      N/A
* DENTON       N/A       56  54  93 NW12       N/A
* GEYSER       N/A       54  52  93 NE9        N/A
* JUDITH GAP   N/A       52  51  96 NW4        N/A
* LOMA         N/A       56  51  83 N15G20     N/A
$$

MTZ017>020-022>027-061-062-220500-
NORTHEAST MONTANA
CITY           SKY/WX    TMP DP  RH WIND       PRES   REMARKS
GLASGOW        CLOUDY    61  59  93 NE9       30.05R
GLENDIVE       CLOUDY    61  59  93 N6        30.06R
JORDAN         CLOUDY    61  57  87 N5        30.06S
SIDNEY         CLOUDY    66  63  90 CALM      30.03R
WOLF POINT     CLOUDY    64  59  84 N7        30.06R
* BEAVER HILL  N/A       62  59  90 N/A        N/A
* CIRCLE       N/A       60  58  93 NE6        N/A
* LINDSAY DVD  N/A       58  57  96 NW13G19    N/A
* SACO         N/A       60  58  93 NE1        N/A
$$

MTZ028>042-056>058-220500-
SOUTHCENTRAL AND SOUTHEAST MONTANA
CITY           SKY/WX    TMP DP  RH WIND       PRES   REMARKS
BAKER          LGT RAIN  64  61  90 N7        30.04S
BILLINGS       MOCLDY    57  55  93 NW6       30.12R
LIVINGSTON     CLOUDY    57  52  83 E8        30.13R
MILES CITY     CLOUDY    63  57  81 N10       30.05R
* LAUREL APT   CLOUDY    55  52  90 N/A        N/A
* ROUNDUP APT  MOCLDY    55  52  90 N/A        N/A
* ALZADA       N/A       62  60  93 W6         N/A
* HYSHAM       N/A       58  54  87 NW2        N/A
* LAME DEER    N/A       57  56  96 N6G11      N/A
* REED POINT   N/A       56  54  93 N/A        N/A
* ROSCOE HILL  N/A       53  48  83 N4         N/A
$$

REGIONAL REPORTS...DAKOTAS
CITY           SKY/WX    TMP DP  RH WIND       PRES   REMARKS
WILLISTON      CLOUDY    64  57  78 CALM      30.02R
DICKINSON      LGT RAIN  64  61  90 N6        30.01R
BEACH          N/A       63  63 100 N3        30.04S
CROSBY         CLEAR     59  59 100 N3        30.05R
TIOGA          FAIR      59  59 100 NE7       30.06R
WATFORD CITY   CLEAR     61  57  87 CALM      30.01R
BISMARCK       PTCLDY    68  63  84 NE3       29.95F
GRAND FORKS    MOCLDY    70  70 100 CALM      29.86S
FARGO          PTCLDY    68  66  93 CALM      29.87R
BUFFALO SD     CLOUDY    63  61  93 N15       29.95R
RAPID CITY     TSTM      64  61  90 E3        29.99R
$$

REGIONAL REPORTS...WYOMING/IDAHO/WASHINGTON
CITY           SKY/WX    TMP DP  RH WIND       PRES   REMARKS
GILLETTE       CLOUDY    63  55  75 N14       30.10R
SHERIDAN       CLOUDY    59  54  84 NW14      30.12R
CODY           MOCLDY    54  48  80 E8        30.15S
YELLOWSTONE LA CLOUDY    45  43  93 N/A       30.29S
SALMON         MOCLDY    61  52  72 N7        29.99R
MULLAN PASS    CLOUDY    50  45  83 SE9       30.09S
SAND POINT     LGT RAIN  59  55  87 CALM      30.04R
SPOKANE        CLOUDY    66  48  52 NE9       29.93R
$$

REGIONAL REPORTS...ALBERTA
CITY           SKY/WX    TMP DP  RH WIND       PRES   REMARKS
CALGARY        CLOUDY    52  46  80 NE7       30.23R
LETHBRIDGE     CLOUDY    54  52  93 NW3       30.19R
MEDICINE HAT   LGT RAIN  57  52  83 E3        30.18R
EDMONTON       CLOUDY    52  43  72 E7        30.25R
WATERTON GATE  N/A       48  46  93 NE3        N/A
CARDSTON       N/A       50  50 100 E1         N/A
MILK RIVER     N/A       52  52 100 NE5        N/A
$$

REGIONAL REPORTS...SASKATCHEWAN
CITY           SKY/WX    TMP DP  RH WIND       PRES   REMARKS
SWIFT CURRENT  LGT RAIN  55  54  96 N13G20    30.14S
REGINA         CLOUDY    61  54  78 NE7       30.09R
VAL MARIE      N/A       59  57  93 N9         N/A
ASSINIBOIA     N/A       59  55  87 NE6        N/A
CORONACH       N/A       59  55  87 SW1        N/A

$$




USA.gov is the U.S. government's official web portal to all federal, state and local government web resources and services.